When you browse on this site, cookies collect data to enhance your experience and personalize the content and advertising you see.
Visit our Privacy Policy to learn more. By continuing to use the site, you agree to this use of cookies and data.
EN

Hourly Weather Andreevka

Today, 20 September, Sunday

Time Temperature Precipitation Wind Pressure Humidity
00:00 +4°C° 0 mm 4 mps 737 mmHg 92%
01:00 +4°C° 0 mm 4 mps 737 mmHg 93%
02:00 +4°C° 0 mm 4 mps 737 mmHg 93%
03:00 +4°C° 0 mm 4 mps 737 mmHg 94%
04:00 +4°C° 0 mm 4 mps 737 mmHg 93%
05:00 +4°C° 0 mm 4 mps 737 mmHg 92%
06:00 +3°C° 0 mm 5 mps 737 mmHg 91%
07:00 +5°C° 0 mm 5 mps 737 mmHg 88%
08:00 +4°C° 0 mm 6 mps 737 mmHg 85%
09:00 +5°C° 0 mm 6 mps 737 mmHg 82%
10:00 +5°C° 0.1 mm 7 mps 738 mmHg 80%
11:00 +5°C° 0.1 mm 7 mps 738 mmHg 77%
12:00 +5°C° 0.1 mm 7 mps 738 mmHg 75%
13:00 +5°C° 0.1 mm 7 mps 739 mmHg 74%
14:00 +5°C° 0.1 mm 8 mps 740 mmHg 73%
15:00 +6°C° 0.1 mm 8 mps 740 mmHg 72%
16:00 +5°C° 0.1 mm 7 mps 740 mmHg 74%
17:00 +5°C° 0.1 mm 7 mps 741 mmHg 75%
18:00 +5°C° 0.1 mm 6 mps 741 mmHg 76%
19:00 +4°C° 0 mm 6 mps 741 mmHg 78%
20:00 +4°C° 0 mm 6 mps 742 mmHg 80%
21:00 +5°C° 0 mm 5 mps 742 mmHg 82%
22:00 +5°C° 0 mm 5 mps 742 mmHg 83%
23:00 +3°C° 0 mm 5 mps 742 mmHg 84%

Tomorrow, 21 September, Monday

Time Temperature Precipitation Wind Pressure Humidity
00:00 +3°C° 0 mm 5 mps 743 mmHg 86%
01:00 +3°C° 0 mm 5 mps 743 mmHg 87%
02:00 +3°C° 0 mm 5 mps 743 mmHg 87%
03:00 +2°C° 0 mm 5 mps 744 mmHg 88%
04:00 +2°C° 0 mm 5 mps 744 mmHg 88%
05:00 +3°C° 0 mm 4 mps 744 mmHg 88%
06:00 +3°C° 0 mm 4 mps 744 mmHg 87%
07:00 +3°C° 0 mm 5 mps 744 mmHg 82%
08:00 +5°C° 0 mm 5 mps 744 mmHg 77%
09:00 +7°C° 0 mm 6 mps 744 mmHg 72%
10:00 +8°C° 0 mm 6 mps 743 mmHg 68%
11:00 +9°C° 0 mm 7 mps 743 mmHg 64%
12:00 +10°C° 0 mm 7 mps 743 mmHg 60%
13:00 +10°C° 0 mm 7 mps 742 mmHg 61%
14:00 +10°C° 0 mm 8 mps 742 mmHg 62%
15:00 +10°C° 0 mm 8 mps 742 mmHg 63%
16:00 +10°C° 0.1 mm 7 mps 742 mmHg 67%
17:00 +9°C° 0.1 mm 6 mps 742 mmHg 71%
18:00 +9°C° 0.1 mm 5 mps 742 mmHg 75%
19:00 +9°C° 0.1 mm 5 mps 743 mmHg 79%
20:00 +8°C° 0.1 mm 5 mps 743 mmHg 82%
21:00 +8°C° 0.1 mm 5 mps 743 mmHg 86%
22:00 +8°C° 0 mm 5 mps 743 mmHg 87%
23:00 +8°C° 0 mm 5 mps 743 mmHg 89%

Day after tomorrow, 22 September, Tuesday

Time Temperature Precipitation Wind Pressure Humidity
00:00 +7°C° 0 mm 5 mps 743 mmHg 91%
01:00 +7°C° 0 mm 4 mps 743 mmHg 92%
02:00 +7°C° 0 mm 4 mps 743 mmHg 93%
03:00 +7°C° 0 mm 4 mps 744 mmHg 95%
04:00 +7°C° 0 mm 4 mps 744 mmHg 95%
05:00 +7°C° 0 mm 4 mps 744 mmHg 94%
06:00 +8°C° 0 mm 5 mps 743 mmHg 94%
07:00 +9°C° 0 mm 5 mps 743 mmHg 90%
08:00 +10°C° 0 mm 6 mps 743 mmHg 86%
09:00 +11°C° 0 mm 7 mps 743 mmHg 81%
10:00 +12°C° 0 mm 7 mps 743 mmHg 77%
11:00 +13°C° 0 mm 8 mps 743 mmHg 72%
12:00 +16°C° 0 mm 8 mps 742 mmHg 68%
13:00 +16°C° 0 mm 8 mps 742 mmHg 67%
14:00 +16°C° 0 mm 8 mps 742 mmHg 66%
15:00 +17°C° 0 mm 8 mps 741 mmHg 66%
16:00 +16°C° 0 mm 8 mps 741 mmHg 68%
17:00 +15°C° 0 mm 7 mps 741 mmHg 70%
18:00 +15°C° 0 mm 6 mps 741 mmHg 72%
19:00 +14°C° 0 mm 6 mps 741 mmHg 72%
20:00 +14°C° 0 mm 6 mps 742 mmHg 72%
21:00 +14°C° 0 mm 7 mps 742 mmHg 73%
22:00 +13°C° 0 mm 6 mps 742 mmHg 74%
23:00 +13°C° 0 mm 6 mps 742 mmHg 75%

23 September, Wednesday

Time Temperature Precipitation Wind Pressure Humidity
00:00 +11°C° 0 mm 6 mps 742 mmHg 77%
01:00 +11°C° 0 mm 6 mps 742 mmHg 78%
02:00 +12°C° 0 mm 5 mps 742 mmHg 79%
03:00 +10°C° 0 mm 5 mps 743 mmHg 81%
04:00 +10°C° 0 mm 5 mps 743 mmHg 83%
05:00 +10°C° 0 mm 4 mps 744 mmHg 85%
06:00 +10°C° 0 mm 4 mps 744 mmHg 87%
07:00 +11°C° 0 mm 4 mps 745 mmHg 83%
08:00 +12°C° 0 mm 5 mps 745 mmHg 79%
09:00 +13°C° 0 mm 5 mps 746 mmHg 75%
10:00 +15°C° 0 mm 5 mps 746 mmHg 68%
11:00 +16°C° 0 mm 5 mps 746 mmHg 62%
12:00 +17°C° 0 mm 5 mps 746 mmHg 56%
13:00 +17°C° 0 mm 5 mps 747 mmHg 55%
14:00 +19°C° 0 mm 4 mps 747 mmHg 54%
15:00 +19°C° 0 mm 4 mps 747 mmHg 53%
16:00 +17°C° 0 mm 3 mps 747 mmHg 60%
17:00 +16°C° 0 mm 2 mps 747 mmHg 67%
18:00 +14°C° 0 mm 1 mps 747 mmHg 74%
19:00 +14°C° 0 mm 1 mps 748 mmHg 77%
20:00 +12°C° 0 mm 0 mps 748 mmHg 79%
21:00 +11°C° 0 mm 0 mps 749 mmHg 82%
22:00 +11°C° 0 mm 0 mps 749 mmHg 83%
23:00 +11°C° 0 mm 0 mps 749 mmHg 83%

24 September, Thursday

Time Temperature Precipitation Wind Pressure Humidity
00:00 +11°C° 0 mm 1 mps 749 mmHg 84%
01:00 +11°C° 0 mm 1 mps 749 mmHg 85%
02:00 +11°C° 0 mm 1 mps 749 mmHg 85%
03:00 +11°C° 0 mm 1 mps 750 mmHg 86%
04:00 +10°C° 0 mm 1 mps 750 mmHg 87%
05:00 +10°C° 0 mm 1 mps 750 mmHg 89%
06:00 +10°C° 0 mm 1 mps 750 mmHg 90%
07:00 +12°C° 0 mm 2 mps 751 mmHg 84%
08:00 +13°C° 0 mm 2 mps 751 mmHg 79%
09:00 +15°C° 0 mm 2 mps 751 mmHg 73%
10:00 +17°C° 0 mm 3 mps 751 mmHg 68%
11:00 +18°C° 0 mm 3 mps 751 mmHg 63%
12:00 +19°C° 0 mm 3 mps 751 mmHg 57%
13:00 +20°C° 0 mm 3 mps 751 mmHg 57%
14:00 +20°C° 0 mm 3 mps 751 mmHg 56%
15:00 +20°C° 0 mm 2 mps 751 mmHg 55%
16:00 +18°C° 0 mm 2 mps 751 mmHg 61%
17:00 +17°C° 0 mm 2 mps 751 mmHg 67%
18:00 +16°C° 0 mm 2 mps 751 mmHg 73%
19:00 +15°C° 0 mm 2 mps 751 mmHg 74%
20:00 +14°C° 0 mm 2 mps 751 mmHg 76%
21:00 +14°C° 0 mm 2 mps 752 mmHg 78%
22:00 +13°C° 0 mm 2 mps 752 mmHg 79%
23:00 +13°C° 0 mm 2 mps 752 mmHg 81%

25 September, Friday

Time Temperature Precipitation Wind Pressure Humidity
00:00 +12°C° 0 mm 2 mps 752 mmHg 82%
01:00 +12°C° 0 mm 2 mps 752 mmHg 82%
02:00 +12°C° 0 mm 2 mps 752 mmHg 81%
03:00 +10°C° 0 mm 2 mps 752 mmHg 81%
04:00 +10°C° 0 mm 2 mps 752 mmHg 81%
05:00 +10°C° 0 mm 2 mps 752 mmHg 81%
06:00 +10°C° 0 mm 2 mps 753 mmHg 81%
07:00 +12°C° 0 mm 2 mps 753 mmHg 75%
08:00 +14°C° 0 mm 2 mps 753 mmHg 70%
09:00 +14°C° 0 mm 3 mps 753 mmHg 64%
10:00 +17°C° 0 mm 3 mps 753 mmHg 59%
11:00 +19°C° 0 mm 3 mps 753 mmHg 54%
12:00 +20°C° 0 mm 3 mps 753 mmHg 50%
13:00 +20°C° 0 mm 3 mps 753 mmHg 49%
14:00 +21°C° 0 mm 3 mps 753 mmHg 49%
15:00 +21°C° 0 mm 3 mps 753 mmHg 48%
16:00 +19°C° 0 mm 3 mps 753 mmHg 54%
17:00 +17°C° 0 mm 3 mps 753 mmHg 59%
18:00 +16°C° 0 mm 2 mps 753 mmHg 64%
19:00 +15°C° 0 mm 2 mps 753 mmHg 63%
20:00 +14°C° 0 mm 2 mps 753 mmHg 63%
21:00 +12°C° 0 mm 3 mps 753 mmHg 62%
22:00 +12°C° 0 mm 2 mps 753 mmHg 62%
23:00 +12°C° 0 mm 2 mps 754 mmHg 62%
Show more